Location: Fatehalanka
(16.3139°N, 80.8379°E)
Time: 21:36:47
(UTC+00:00)

Atlas Centaur 2 - Pass Details

Date: 14 May 2026
Orbit: 456 x 1246 km, 30.4° (Epoch: 10 June)

Event Time Altitude Azimuth Distance (km) Brightness Sun altitude
Exits shadow 20:47:53 27° 358° (N) 1,997 4.3 -41.7°
Drops below altitude 10° 20:54:18 10° 52° (NE) 3,149 5.8 -40.6°
Sets 20:57:50 0° 64° (ENE) 4,160 6.6 -40.0°
